Location: Peebles
(55.6412°N, 3.1714°W)
Time: 22:22:42
(UTC+00:00)

FENGYUN 1C DEB - Pass Details

Date: 14 February 2023
Orbit: 707 x 862 km, 98.5° (Epoch: 07 November)

Event Time Altitude Azimuth Distance (km) Brightness Sun altitude
Rises 18:33:23 0° 141° (SE) 3,406 ? -11.5°
Reaches altitude 10° 18:35:50 10° 136° (SE) 2,473 ? -11.9°
Maximum altitude 18:41:06 48° 64° (ENE) 1,094 ? -12.6°
Drops below altitude 10° 18:46:18 10° 352° (N) 2,449 ? -13.4°
Sets 18:48:42 0° 347° (NNW) 3,370 ? -13.7°
